Location: Poughquag
(41.6090°N, 73.6820°W)
Time: 16:33:02
(UTC-05:00)

Envisat - Pass Details

Date: 18 January 2020
Orbit: 764 x 766 km, 98.1° (Epoch: 24 February)

Event Time Altitude Azimuth Distance (km) Brightness Sun altitude
Rises 18:26:58 0° 189° (S) 3,218 6.5 -17.4°
Reaches altitude 10° 18:29:27 10° 198° (SSW) 2,296 5.9 -17.9°
Maximum altitude 18:34:03 34° 263° (W) 1,235 4.7 -18.7°
Drops below altitude 10° 18:38:40 10° 329° (NNW) 2,311 5.7 -19.5°
Sets 18:41:12 0° 338° (NNW) 3,242 6.4 -20.0°
